Temperature
16 16 16 15 15 15 15 15 15 15 15 15 15 14 14 14 14 14 14 14 14 14 14 14 14 14 14 13 13 13 13 13 13 12 12 12 12 12 12 12 11 11 11
16 16 16 16 15 15 15 15 15 15 15 15 15 15 14 14 14 14 14 14 14 14 14 14 14 14 14 13 13 13 13 13 13 12 12 12 11 12 12 11 11 11 11
16 16 16 15 15 15 15 15 15 15 15 15 15 14 14 14 14 14 14 14 14 14 14 14 14 13 13 13 13 13 13 13 12 12 12 12 11 11 11 11 11 11 11
16 16 16 15 15 15 15 15 15 15 15 15 15 14 14 14 14 14 14 14 14 14 14 14 13 13 13 13 13 13 13 13 12 12 12 11 11 11 11 11 10 10 10
16 16 16 16 16 16 15 15 15 15 15 15 15 14 14 14 14 14 14 14 14 14 13 14 13 13 13 13 13 13 13 12 12 12 11 11 11 11 11 11 10 10 10
16 16 16 16 16 16 15 15 15 15 15 15 15 15 14 14 14 14 14 14 14 13 13 13 13 13 13 13 13 13 13 12 12 11 11 11 11 11 11 10 10 10 10
16 16 16 16 16 16 15 15 15 15 15 15 15 15 14 14 14 14 14 14 13 13 13 13 13 13 13 13 13 12 12 12 12 11 11 11 11 11 11 10 10 10 9
16 16 16 16 16 15 15 15 15 15 15 15 15 15 14 14 14 14 14 14 13 13 13 13 13 13 13 12 12 12 12 12 12 11 11 11 11 11 10 10 10 10 9
16 16 16 15 15 15 15 15 15 15 15 15 15 14 14 14 14 14 14 13 13 13 13 13 13 13 13 12 12 12 12 12 12 12 11 11 11 11 11 10 9 9 9
16 15 15 15 15 15 15 15 15 15 15 15 14 14 14 14 14 14 14 13 13 13 13 13 13 13 12 12 12 11 11 11 11 11 11 11 11 10 10 10 9 9 9
15 15 15 15 15 15 15 15 14 14 14 14 14 14 14 14 14 14 13 13 13 13 12 12 12 12 12 12 12 11 11 11 11 10 10 10 10 10 10 10 9 9 8
15 15 15 15 15 15 14 14 14 14 14 14 14 14 14 14 13 13 13 13 13 12 12 12 12 12 12 12 12 11 11 11 10 10 10 10 10 9 9 9 9 9 8
15 15 15 14 14 14 14 14 14 14 13 13 13 13 13 13 13 13 13 13 12 12 12 12 12 12 12 11 11 11 11 10 10 10 9 9 9 9 9 9 9 8 8
15 14 14 14 14 14 14 14 14 13 13 13 13 13 13 13 13 13 12 12 12 12 12 12 11 11 11 11 11 10 10 10 10 9 9 9 9 9 9 8 8 8 7
14 14 14 14 14 14 14 14 13 13 13 13 13 13 12 12 12 12 12 12 12 11 11 11 11 11 10 10 10 10 9 9 9 9 9 9 8 8 8 8 7 7 6
14 14 14 13 13 13 13 13 13 13 13 13 13 12 12 12 12 12 11 11 11 11 11 10 10 10 10 9 9 9 9 9 9 9 8 8 8 8 8 7 7 6 6
14 13 13 13 13 13 13 13 13 13 12 12 12 12 12 12 12 11 11 11 11 11 10 10 10 9 9 9 9 9 8 8 8 8 8 8 7 7 7 7 6 6 6
13 13 13 13 13 13 12 12 12 12 12 12 12 12 12 11 11 11 11 11 10 10 10 9 9 9 9 9 9 8 8 8 8 7 7 7 7 7 6 6 6 5 5
13 13 13 13 12 12 12 12 11 11 11 11 11 11 11 11 10 10 10 10 10 10 10 9 9 9 8 8 8 8 8 8 7 7 7 7 6 6 6 5 5 5 5
12 13 12 12 12 12 11 11 11 11 11 11 10 10 10 10 10 10 10 10 9 9 9 9 9 8 8 8 8 8 7 7 7 7 7 6 6 6 5 5 5 4 4
12 12 12 12 11 11 11 11 11 10 10 10 10 10 10 10 9 9 9 9 9 9 9 8 8 8 8 8 7 7 7 7 6 6 6 6 6 5 5 5 4 4 4
11 11 11 11 11 11 10 10 10 10 10 10 10 10 9 9 9 9 9 9 8 8 8 8 8 7 7 7 7 7 7 6 6 6 5 5 5 5 4 4 4 3 3
11 11 11 11 10 10 10 10 10 9 9 9 9 9 9 9 9 8 8 8 8 8 8 8 7 7 7 7 7 6 6 6 6 5 5 5 4 4 4 4 3 3 3
10 10 10 10 10 9 9 9 9 9 9 9 9 9 9 8 8 8 8 8 8 8 7 7 7 7 7 6 6 6 6 6 5 5 4 4 4 4 3 3 3 3 2
9 9 9 9 9 9 9 9 9 9 9 9 8 8 8 8 8 8 7 7 7 7 7 7 7 6 6 6 6 6 5 5 5 4 4 4 4 3 3 3 3 2 2
9 9 9 8 8 8 8 8 8 8 8 8 8 8 8 8 8 8 7 7 7 7 7 6 6 6 6 6 5 5 5 5 5 4 4 4 3 3 3 3 2 2 2
Wind_Speed
6 6 6 5 5 5 4 4 4 4 4 4 4 4 3 3 3 3 2 2 2 2 2 2 2 1 1 1 0 0 1 1 0 0 1 1 2 1 2 2 2 2 4
6 6 6 5 6 5 5 5 5 5 5 5 4 4 4 3 3 3 2 2 2 1 1 1 1 2 1 0 0 0 0 0 1 1 1 1 1 1 1 1 1 2 3
7 6 6 6 6 6 5 5 5 5 5 5 4 4 4 4 3 3 3 3 2 2 1 1 1 2 2 1 1 1 1 1 1 1 0 0 0 0 0 0 0 1 1
7 7 6 6 6 6 5 5 5 5 5 5 5 4 4 4 4 4 3 3 3 2 1 1 2 2 2 2 2 2 2 1 1 1 1 1 1 1 1 1 1 0 1
8 7 6 6 5 5 5 5 5 5 5 5 5 5 4 4 4 4 4 3 3 2 2 2 1 0 2 1 1 2 2 2 2 2 2 2 1 1 1 2 2 2 1
8 7 6 6 5 5 5 6 5 5 5 5 5 5 5 4 3 3 4 4 4 3 3 2 2 3 3 3 1 2 3 3 3 3 2 3 2 2 2 2 2 3 2
8 7 7 6 6 6 5 5 5 5 5 5 5 5 5 5 6 5 5 4 4 3 3 3 2 2 3 3 4 6 4 3 4 5 4 4 3 3 3 3 3 4 4
8 7 7 7 7 6 5 5 5 5 5 5 5 5 5 5 6 6 5 5 4 4 4 3 4 4 3 3 3 3 2 2 3 4 4 3 3 3 3 4 4 4 4
7 7 7 7 7 7 6 6 5 5 5 5 5 5 5 5 7 6 6 4 4 4 4 3 4 4 2 3 4 4 3 2 1 1 1 2 3 2 3 3 4 4 4
7 7 7 7 7 7 7 6 5 5 5 4 5 5 5 5 7 7 6 4 4 4 3 4 3 4 3 4 5 5 4 4 3 3 3 4 3 3 5 5 4 5 5
6 6 6 6 6 6 6 5 5 5 5 4 4 4 5 4 6 7 6 5 4 4 4 4 3 4 5 5 6 5 3 3 4 4 3 3 3 2 3 3 3 4 5
6 6 6 6 6 5 5 5 5 5 5 4 4 4 4 4 4 6 7 6 5 5 4 3 2 4 4 5 4 3 3 4 4 4 4 4 3 3 2 2 3 3 4
6 6 6 6 6 6 6 5 5 5 5 4 4 4 4 4 4 6 6 6 6 4 3 1 1 3 4 4 5 6 6 5 5 5 5 4 3 3 3 3 3 3 3
6 6 5 6 6 6 5 5 5 5 5 5 5 4 4 4 3 3 3 4 4 4 3 2 3 3 4 3 4 5 5 4 4 5 4 4 3 3 4 4 4 3 4
5 5 5 5 5 5 5 4 5 5 4 5 5 5 4 5 3 2 3 4 3 3 3 3 3 3 4 4 4 4 4 4 4 5 5 4 4 4 4 4 4 4 5
5 5 4 4 4 5 4 4 1 2 2 3 2 3 3 1 3 4 4 3 2 4 3 4 4 4 4 4 4 4 4 5 5 4 5 5 5 4 4 3 4 5 5
5 5 4 4 4 5 5 5 4 2 3 4 5 4 4 3 4 5 5 4 5 6 4 5 5 5 5 5 4 5 5 5 5 5 5 5 5 5 4 4 4 5 5
4 4 4 4 4 4 5 5 4 4 4 3 4 5 5 5 5 5 5 5 3 5 5 5 5 5 5 5 5 5 4 4 4 5 5 5 5 5 5 5 5 5 5
3 3 4 4 4 4 4 4 4 5 4 3 3 3 4 4 4 5 6 4 5 5 5 5 5 5 5 5 4 4 4 4 5 5 5 5 5 5 5 5 5 5 6
3 3 3 4 4 4 4 4 4 4 4 4 4 3 3 3 3 4 4 5 5 5 5 5 5 5 5 5 4 4 4 5 5 5 5 5 5 5 6 6 5 5 5
2 3 4 4 3 4 4 4 4 4 4 4 4 3 4 5 4 5 5 5 5 5 5 5 5 5 4 4 4 5 6 5 5 5 5 5 5 5 5 5 5 5 4
2 2 3 3 3 3 3 3 3 4 4 4 3 3 4 4 4 4 5 5 5 4 4 4 4 4 4 4 4 5 5 5 5 5 5 5 5 5 5 5 5 4 4
2 2 2 3 3 3 3 3 3 3 3 4 3 3 4 4 4 4 5 4 4 4 4 4 4 4 4 4 5 5 5 6 6 5 5 5 5 5 5 5 5 5 5
2 3 3 3 3 3 3 3 3 4 4 4 3 4 4 4 5 5 4 4 3 3 3 4 4 5 5 4 4 5 5 5 5 5 6 5 5 5 5 5 5 5 5
3 3 3 3 3 4 4 4 4 4 4 4 4 4 4 4 5 4 4 4 4 4 4 4 4 4 5 5 4 4 4 4 4 4 5 5 5 5 5 5 5 5 5
3 3 3 3 3 3 4 4 4 4 4 4 4 4 4 4 5 5 4 4 4 4 4 4 5 5 5 5 5 5 5 5 5 5 5 5 5 5 6 5 6 6 6
Wind_Direction
195 194 194 196 197 198 199 198 192 184 179 175 174 172 164 161 157 154 160 155 148 138 144 139 130 109 119 128 132 53 12 354 146 110 110 104 106 68 66 49 46 41 61
193 192 193 190 195 199 195 195 191 187 187 185 176 176 171 177 177 172 174 176 172 171 166 167 164 151 160 154 166 160 67 355 204 175 171 131 109 72 57 36 45 47 50
186 190 190 192 197 199 199 194 190 188 184 183 185 186 186 189 188 189 193 195 195 205 211 209 204 189 188 177 198 203 178 157 204 214 199 138 209 77 354 320 57 44 45
183 188 192 194 194 195 194 193 192 191 189 188 190 192 197 200 200 196 199 204 204 208 214 221 227 223 229 214 201 202 201 195 197 215 225 227 220 256 260 278 283 318 324
185 188 192 189 182 184 182 189 187 187 195 194 193 194 198 207 214 207 201 207 210 205 204 210 215 12 2 302 254 223 213 218 219 228 239 245 242 250 271 282 283 273 282
185 187 183 180 176 179 182 183 181 187 195 195 199 198 199 203 169 204 232 213 211 207 209 210 193 183 172 185 222 274 280 252 248 244 252 258 263 264 274 272 282 282 282
186 182 179 178 176 180 180 176 178 188 194 199 202 201 203 183 165 189 223 226 222 225 226 222 216 207 202 201 185 195 214 243 267 269 269 277 273 268 264 266 274 285 295
185 182 181 181 179 178 178 180 187 192 190 198 200 198 197 181 168 184 205 222 221 223 229 232 229 230 229 231 230 228 235 231 236 247 263 278 282 278 269 273 274 272 272
184 186 183 184 181 180 183 188 190 191 191 196 195 197 200 192 177 187 206 214 218 225 233 237 240 239 169 206 232 232 234 237 176 193 313 312 333 311 275 255 259 265 274
190 190 185 183 182 186 190 191 186 187 193 194 193 201 205 204 168 183 211 217 225 228 229 235 231 235 207 217 233 235 238 244 238 212 207 212 232 219 224 244 259 266 277
187 187 184 183 188 188 188 188 185 185 190 198 200 204 209 207 175 186 211 223 229 238 238 238 224 181 207 232 250 248 246 255 251 247 245 243 239 241 236 244 262 268 271
181 185 188 188 187 186 183 184 187 186 191 200 208 207 210 204 199 193 207 229 252 241 247 246 217 167 199 222 234 211 212 236 238 239 242 246 246 247 251 256 256 261 274
183 187 190 191 190 188 185 184 188 192 202 209 211 216 215 209 195 187 201 216 231 239 245 290 197 183 199 213 198 205 220 232 232 239 245 248 250 249 248 244 245 250 265
186 185 187 190 191 191 190 195 197 199 206 213 215 219 220 211 204 193 201 205 202 218 229 186 186 213 223 218 206 216 231 236 240 244 248 249 244 236 239 241 244 245 253
187 186 190 191 189 191 192 204 210 210 214 217 217 217 217 223 207 195 214 211 211 208 207 218 227 227 229 229 231 232 231 229 233 238 242 243 244 244 244 243 246 251 259
191 190 191 192 191 193 191 194 203 236 197 229 245 239 225 213 141 175 205 213 172 162 193 223 230 235 238 240 241 239 237 238 239 238 241 243 246 248 248 248 248 252 259
197 192 191 198 198 199 200 203 205 197 186 203 208 217 223 181 174 186 195 193 183 177 212 232 236 239 241 241 240 243 246 244 240 240 241 243 246 247 247 249 251 255 259
203 194 194 199 204 206 207 209 210 209 210 211 198 197 198 190 189 190 179 172 196 209 235 242 245 246 245 243 242 244 248 247 244 242 243 242 241 244 246 248 251 258 262
202 201 199 199 205 210 210 209 212 213 214 210 200 187 183 182 182 184 180 212 223 226 234 242 246 245 245 243 243 243 244 245 245 243 243 244 243 243 246 250 253 252 258
200 184 198 200 202 205 207 209 212 214 214 212 213 206 179 190 209 203 209 228 237 238 239 241 243 244 242 242 241 240 242 243 244 244 243 244 246 245 247 250 253 256 256
203 188 187 197 200 205 210 214 215 216 216 216 219 204 186 206 218 221 224 232 240 245 244 244 244 244 242 240 238 238 241 243 245 244 242 240 242 246 248 249 251 251 255
202 201 207 207 204 207 214 216 217 216 215 217 217 196 184 214 224 226 229 234 237 243 244 239 240 240 237 234 234 238 241 243 244 244 242 240 239 241 244 245 246 248 247
205 204 203 205 207 199 206 211 212 214 216 217 214 206 203 219 227 231 233 235 233 234 234 229 232 236 233 235 233 234 238 241 241 239 240 236 235 235 237 239 240 244 245
207 205 203 207 205 205 208 212 212 214 216 219 219 218 217 221 228 231 232 233 229 230 231 229 231 237 241 243 241 241 242 242 238 230 231 232 231 231 231 236 239 238 240
207 206 207 211 211 210 211 215 218 220 222 223 225 226 226 227 228 231 231 228 226 229 233 234 232 234 238 240 243 246 240 226 225 228 223 224 221 223 225 230 234 235 237
213 211 212 214 218 220 219 220 223 225 228 231 232 233 231 232 232 232 230 228 228 231 235 234 232 233 237 235 240 238 222 212 211 222 224 218 215 218 221 227 231 232 234
Height
1546 1548 1549 1550 1551 1552 1553 1554 1555 1556 1557 1558 1558 1559 1560 1560 1561 1561 1561 1561 1561 1562 1562 1561 1561 1561 1561 1561 1561 1561 1560 1561 1560 1560 1559 1559 1558 1557 1556 1555 1554 1553 1551
1544 1546 1547 1548 1550 1551 1552 1553 1554 1555 1556 1557 1558 1558 1559 1559 1560 1560 1561 1561 1561 1561 1561 1561 1561 1561 1561 1561 1560 1560 1560 1560 1560 1559 1559 1558 1557 1556 1555 1554 1553 1552 1551
1543 1544 1546 1547 1548 1549 1551 1552 1553 1554 1555 1556 1557 1558 1558 1559 1559 1560 1560 1560 1561 1561 1561 1561 1561 1560 1560 1560 1560 1560 1559 1559 1559 1559 1558 1557 1557 1556 1554 1554 1553 1551 1550
1541 1542 1544 1545 1546 1548 1549 1550 1552 1553 1553 1554 1555 1556 1557 1558 1558 1559 1559 1559 1560 1560 1560 1560 1560 1560 1560 1559 1559 1559 1559 1558 1558 1558 1557 1557 1556 1554 1554 1553 1552 1550 1549
1539 1540 1542 1544 1545 1546 1547 1548 1550 1551 1552 1553 1554 1555 1555 1556 1557 1558 1558 1558 1558 1559 1558 1558 1558 1558 1558 1558 1558 1558 1558 1557 1557 1557 1556 1556 1555 1553 1553 1551 1550 1549 1547
1537 1538 1540 1541 1543 1544 1545 1547 1548 1549 1550 1551 1552 1553 1554 1554 1555 1556 1556 1557 1557 1557 1557 1557 1557 1557 1556 1556 1556 1556 1556 1556 1556 1555 1555 1554 1553 1552 1551 1550 1549 1548 1547
1534 1536 1537 1539 1541 1542 1544 1545 1546 1547 1548 1550 1550 1551 1552 1553 1553 1554 1554 1555 1555 1556 1556 1556 1555 1555 1555 1555 1554 1554 1553 1553 1553 1553 1553 1552 1551 1550 1549 1548 1547 1546 1544
1532 1533 1535 1537 1538 1540 1541 1542 1544 1545 1546 1547 1549 1550 1550 1551 1551 1552 1552 1553 1553 1554 1554 1554 1554 1554 1553 1553 1553 1552 1552 1551 1551 1550 1550 1549 1548 1547 1546 1545 1544 1543 1541
1529 1531 1532 1534 1536 1537 1539 1540 1542 1543 1544 1545 1546 1547 1548 1549 1549 1550 1551 1551 1551 1552 1552 1552 1551 1551 1551 1550 1550 1550 1549 1549 1548 1547 1546 1546 1545 1544 1543 1542 1541 1541 1539
1526 1528 1530 1532 1533 1535 1536 1538 1539 1541 1542 1543 1544 1545 1546 1547 1547 1548 1548 1549 1549 1549 1549 1549 1548 1548 1548 1547 1547 1547 1546 1546 1546 1544 1543 1542 1542 1541 1539 1539 1538 1537 1536
1524 1526 1527 1529 1531 1533 1534 1535 1537 1538 1539 1540 1541 1542 1543 1544 1544 1545 1546 1546 1546 1546 1546 1546 1546 1545 1545 1544 1544 1544 1543 1543 1542 1542 1540 1539 1538 1537 1536 1535 1534 1533 1533
1521 1523 1525 1526 1528 1530 1531 1533 1534 1535 1536 1537 1538 1539 1540 1541 1541 1542 1542 1543 1543 1543 1543 1543 1542 1542 1541 1541 1540 1540 1540 1539 1539 1538 1537 1536 1535 1534 1533 1532 1530 1529 1528
1518 1520 1522 1524 1525 1527 1528 1530 1531 1532 1533 1534 1535 1535 1536 1537 1537 1538 1539 1539 1539 1539 1539 1539 1539 1538 1538 1537 1537 1536 1536 1535 1535 1534 1533 1532 1531 1530 1529 1527 1526 1525 1524
1516 1517 1519 1521 1522 1524 1525 1526 1528 1529 1529 1530 1531 1532 1532 1533 1534 1534 1534 1535 1535 1535 1535 1534 1534 1534 1534 1533 1533 1532 1532 1531 1531 1530 1529 1528 1527 1526 1525 1523 1522 1521 1520
1513 1515 1516 1518 1519 1520 1521 1523 1524 1525 1526 1527 1528 1528 1529 1529 1530 1530 1531 1531 1531 1531 1531 1530 1530 1530 1529 1529 1529 1528 1528 1527 1526 1525 1525 1524 1523 1522 1521 1519 1518 1517 1516
1511 1512 1513 1515 1516 1517 1518 1519 1520 1521 1522 1523 1524 1525 1525 1526 1526 1526 1527 1527 1527 1527 1527 1526 1526 1525 1525 1525 1524 1524 1523 1522 1522 1521 1520 1520 1519 1517 1516 1515 1514 1512 1511
1508 1509 1510 1511 1512 1513 1514 1515 1516 1517 1518 1519 1520 1521 1521 1522 1522 1523 1523 1523 1523 1523 1522 1522 1522 1521 1521 1520 1520 1519 1519 1518 1517 1517 1516 1515 1514 1513 1512 1510 1509 1508 1507
1505 1506 1507 1508 1509 1509 1510 1511 1512 1513 1513 1514 1515 1516 1517 1518 1518 1519 1519 1519 1518 1518 1518 1518 1517 1517 1516 1516 1515 1514 1514 1513 1512 1512 1511 1510 1509 1508 1507 1505 1504 1503 1502
1501 1502 1503 1504 1505 1506 1507 1507 1508 1509 1509 1510 1511 1512 1512 1513 1514 1514 1514 1514 1513 1513 1513 1513 1513 1512 1511 1511 1510 1509 1509 1508 1507 1507 1506 1505 1504 1503 1502 1500 1499 1498 1497
1497 1498 1499 1500 1501 1502 1503 1503 1504 1505 1505 1506 1506 1507 1508 1508 1508 1508 1509 1509 1509 1509 1509 1508 1508 1507 1507 1506 1505 1504 1504 1503 1502 1501 1500 1499 1498 1497 1496 1495 1494 1493 1491
1493 1494 1495 1496 1497 1498 1499 1499 1500 1500 1501 1502 1502 1503 1503 1504 1504 1504 1504 1504 1504 1504 1503 1503 1503 1502 1501 1501 1500 1499 1499 1498 1497 1496 1495 1494 1493 1492 1491 1490 1489 1488 1487
1490 1490 1491 1492 1493 1494 1495 1495 1496 1497 1497 1498 1498 1498 1499 1499 1500 1500 1500 1499 1499 1499 1498 1498 1497 1497 1496 1495 1495 1494 1493 1492 1491 1490 1489 1488 1487 1486 1485 1484 1483 1482 1481
1486 1487 1487 1488 1489 1490 1491 1491 1492 1492 1493 1493 1494 1494 1494 1495 1495 1495 1495 1494 1494 1494 1493 1492 1492 1491 1491 1490 1489 1489 1488 1486 1485 1484 1483 1482 1481 1480 1480 1479 1478 1477 1476
1482 1482 1483 1484 1485 1486 1486 1487 1488 1488 1489 1489 1490 1490 1490 1490 1490 1490 1490 1489 1489 1488 1488 1487 1486 1486 1485 1484 1483 1483 1482 1481 1480 1478 1477 1476 1475 1475 1474 1474 1473 1472 1471
1477 1478 1479 1480 1481 1481 1482 1483 1483 1484 1484 1485 1485 1485 1486 1486 1485 1485 1485 1484 1484 1483 1483 1482 1481 1480 1479 1479 1478 1477 1476 1475 1474 1473 1472 1471 1470 1470 1469 1468 1468 1467 1466
1473 1474 1475 1476 1476 1477 1478 1478 1479 1479 1479 1480 1480 1480 1481 1480 1480 1480 1480 1479 1478 1478 1477 1476 1475 1475 1474 1473 1472 1471 1470 1469 1468 1467 1466 1465 1465 1464 1463 1463 1463 1462 1461